Regional Weather Roundup
Issued by NWS Kansas City/Pleasant Hill, MO

Home | Current Version | Previous Version | Text Only | Print | Product List | Glossary On
Versions: 1 2 3 4 5 6 7 8 9 10 11 12 13 14 15 16 17 18 19 20 21 22 23 24 25 26 27 28 29 30 31 32 33 34 35 36 37 38 39 40 41 42 43 44 45 46 47 48 49 50
000
ASUS43 KEAX 240610
RWREAX

WEATHER ROUNDUP FOR EASTERN KANSAS AND NORTHWEST MISSOURI
NATIONAL WEATHER SERVICE KANSAS CITY/PLEASANT HILL MO
1200 AM CST FRI FEB 24 2017

KSZ040-057-103>105-MOZ028-029-037-043-240700-
...KANSAS CITY METROPOLITAN AREA...

CITY           SKY/WX    TMP DP  RH WIND       PRES   REMARKS
K.C. INTL      CLOUDY    47  46  97 NW16G26   29.43R FOG
6HR MIN TEMP:  47; 6HR MAX TEMP:  52;

K.C. DOWNTOWN  CLOUDY    50  47  89 NW20      29.41R
6HR MIN TEMP:  49; 6HR MAX TEMP:  55;

LEES SUMMIT    CLOUDY    50  47  89 NW17      29.41R
6HR MIN TEMP:  49; 6HR MAX TEMP:  60; 6HR PCP:  0.01;

OLATHE - IXD   CLOUDY    48  45  89 NW22G30   29.45R
6HR MIN TEMP:  47; 6HR MAX TEMP:  56;

OLATHE - OJC   CLOUDY    48  47  96 NW17G25   29.42R
6HR MIN TEMP:  47; 6HR MAX TEMP:  56; 6HR PCP: TRACE;

LAWRENCE       CLOUDY    44  42  93 NW25G36   29.48R WCI  35

$$

MOZ001>008-011>017-020>025-030>033-038>040-044>046-053-054-240700-
...NORTHERN AND CENTRAL MISSOURI...

CITY           SKY/WX    TMP DP  RH WIND       PRES   REMARKS
ST. JOSEPH     LGT RAIN  43  42  97 N26G37    29.47F FOG     WCI  33
6HR MIN TEMP:  43; 6HR MAX TEMP:  48; 6HR PCP:  0.01;

MOSBY          CLOUDY    50  48  93 NW15G24   29.42R
WARRENSBURG    CLOUDY    57  48  72 SE5       29.37S
WHITEMAN AFB   TSTM      59  57  94 S7        29.38R
6HR MIN TEMP:  48; 6HR MAX TEMP:  65; 6HR PCP:  0.18;

CLINTON        LGT RAIN  64  48  55 S8        29.40S
SEDALIA        CLOUDY    62  52  69 S13       29.40F
6HR MIN TEMP:  57; 6HR MAX TEMP:  70; 6HR PCP:  0.01;

WARSAW         NOT AVBL
CHILLICOTHE      N/A     48  47  96 VRB6      29.37S
6HR MIN TEMP:  48; 6HR MAX TEMP:  51;

KIRKSVILLE     MOCLDY    50  49  96 E9        29.40F FOG
6HR MIN TEMP:  49; 6HR MAX TEMP:  51;


$$

MOZ041-047>049-056>058-063>065-088>090-097-240700-
...EASTERN AND SOUTHERN MISSOURI...

CITY           SKY/WX    TMP DP  RH WIND       PRES   REMARKS
ST. LOUIS INTL PTCLDY    65  54  67 S12       29.50F
6HR MIN TEMP:  65; 6HR MAX TEMP:  68;

SPIRIT OF STL  CLEAR     65  54  67 VRB3      29.47F
COLUMBIA       CLOUDY    62  56  80 S12       29.44R
JEFFERSON CITY PTCLDY    62  54  74 SE8       29.40F
ROLLA          CLEAR     64  56  75 S16G25    29.44F
OSAGE BEACH    CLEAR     66  55  67 S14       29.42F
SPRINGFIELD    CLOUDY    69  50  50 S21G30    29.42F
BRANSON        CLEAR     66  52  59 S8        29.50R
WEST PLAINS    CLEAR     63  55  75 S12       29.54F

$$

IAZ060-094-KSZ022-034>040-054-083-096-NEZ052-066-093-240700-
...KANSAS...SOUTHEAST NEBRASKA AND IOWA...

CITY           SKY/WX    TMP DP  RH WIND       PRES   REMARKS
TOPEKA         CLOUDY    43  40  89 N13       29.50S
6HR MIN TEMP:  42; 6HR MAX TEMP:  58; 6HR PCP: TRACE;

MANHATTAN      CLOUDY    42  37  82 MISG      29.58R
EMPORIA        CLOUDY    43  37  81 N12       29.53R
CHANUTE        PTCLDY    48  43  82 NW18G26   29.48R
WICHITA        CLOUDY    42  36  79 NW29G36   29.58S WCI  31
OMAHA          LGT SNOW  33  29  85 N18       29.58F FOG     WCI  22
LINCOLN        CLOUDY    33  31  92 N18       29.62R WCI  22
FALLS CITY     CLOUDY    39  39 100 N16G24    29.49F WCI  30
DES MOINES     LGT RAIN  41  39  93 NE18G31   29.47F FOG     WCI  32

$$




USA.gov is the U.S. government's official web portal to all federal, state and local government web resources and services.